Cando, ND

8:02 AM CDT on April 26, 2017 (GMT -0500)
Cando

Weather History for K9D7 - November, 2012

Change the Weather History Date:

Saturday, November 3, 2012

  Actual Average (KDVL) Record (KDVL)
Temperature  
Mean Temperature 28 °F -  
Max Temperature 30 °F 39 °F 65 °F (1980)
Min Temperature 26 °F 23 °F 0 °F (1991)
Degree Days  
Heating Degree Days 37    
Moisture  
Dew Point 28 °F    
Average Humidity 99    
Maximum Humidity 100    
Minimum Humidity 93    
Precipitation  
Precipitation 0.00 in - - ()
Sea Level Pressure  
Sea Level Pressure 30.20 in    
Wind  
Wind Speed 7 mph (ENE)    
Max Wind Speed 10 mph    
Max Gust Speed -    
Visibility 8 miles    
Events      
Averages and records for this station are not official NWS values.
T = Trace of Precipitation, MM = Missing Value Source: NWS Daily Summary

Daily Weather History Graph

Daily Weather History Graph

Search for Another Location

Airport or City:

Trip Planner

Search our weather history database for the weather conditions in past years. The results will help you decide how hot, cold, wet, or windy it might be!

Date:

Astronomy

Nov. 03, 2012 Rise Set
Actual Time 8:26 AM CDT 6:13 PM CDT
Civil Twilight 7:53 AM CDT 6:46 PM CDT
Nautical Twilight 7:16 AM CDT 7:23 PM CDT
Astronomical Twilight 6:40 AM CDT 8:00 PM CDT
Moon 9:48 PM CDT (11/3) 12:40 PM CDT (11/3)
Length of Visible Light 10h 52m
Length of Day
9h 46m
Waning Gibbous, 80% of the Moon is Illuminated
Nov 3
Waning Gibbous
Nov 6
Last Quarter
Nov 13
New
Nov 20
First Quarter
Nov 28
Full

Hourly Weather History & Observations

Time (CDT) Temp. Windchill Dew Point Humidity Pressure Visibility Wind Dir Wind Speed Gust Speed Precip Events Conditions
12:15 AM 26.6 °F 18.2 °F 26.6 °F 100% 30.13 in 1.8 mi East 8.1 mph - N/A   Scattered Clouds
12:35 AM 26.6 °F 18.2 °F 26.6 °F 100% 30.13 in 2.0 mi ESE 8.1 mph - N/A   Mostly Cloudy
12:55 AM 26.6 °F 16.8 °F 26.6 °F 100% 30.13 in 2.0 mi East 10.4 mph - N/A   Overcast
1:15 AM 26.6 °F 17.5 °F 26.6 °F 100% 30.14 in 2.0 mi East 9.2 mph - N/A   Overcast
1:35 AM 26.6 °F 18.2 °F 26.6 °F 100% 30.14 in 2.5 mi East 8.1 mph - N/A   Overcast
2:15 AM 26.6 °F 17.5 °F 26.6 °F 100% 30.14 in 3.0 mi East 9.2 mph - N/A   Mostly Cloudy
2:35 AM 26.6 °F 16.8 °F 26.6 °F 100% 30.14 in 2.0 mi East 10.4 mph - N/A   Mostly Cloudy
3:15 AM 26.6 °F 17.5 °F 26.6 °F 100% 30.14 in 2.0 mi East 9.2 mph - N/A   Mostly Cloudy
3:35 AM 26.6 °F 17.5 °F 26.6 °F 100% 30.13 in 2.5 mi East 9.2 mph - N/A   Overcast
3:55 AM 26.6 °F 17.5 °F 26.6 °F 100% 30.13 in 1.8 mi East 9.2 mph - N/A   Overcast
4:15 AM 26.6 °F 17.5 °F 26.6 °F 100% 30.13 in 2.5 mi East 9.2 mph - N/A   Overcast
4:35 AM 26.6 °F 17.5 °F 26.6 °F 100% 30.13 in 4.0 mi East 9.2 mph - N/A   Overcast
4:55 AM 26.6 °F 18.2 °F 26.6 °F 100% 30.13 in 3.0 mi East 8.1 mph - N/A   Overcast
5:15 AM 26.6 °F 18.2 °F 26.6 °F 100% 30.13 in 3.0 mi East 8.1 mph - N/A   Mostly Cloudy
5:35 AM 26.6 °F 19.1 °F 26.6 °F 100% 30.14 in 2.5 mi East 6.9 mph - N/A   Overcast
5:55 AM 26.6 °F 20.0 °F 26.6 °F 100% 30.14 in 2.5 mi East 5.8 mph - N/A   Overcast
6:15 AM 26.6 °F 20.0 °F 26.6 °F 100% 30.15 in 5.0 mi ENE 5.8 mph - N/A   Overcast
6:35 AM 26.6 °F 19.1 °F 26.6 °F 100% 30.15 in 6.0 mi ENE 6.9 mph - N/A   Overcast
6:55 AM 26.6 °F 20.0 °F 26.6 °F 100% 30.16 in 5.0 mi ENE 5.8 mph - N/A   Overcast
7:15 AM 26.6 °F 19.1 °F 26.6 °F 100% 30.16 in 6.0 mi ENE 6.9 mph - N/A   Overcast
7:35 AM 26.6 °F 19.1 °F 26.6 °F 100% 30.16 in 7.0 mi ENE 6.9 mph - N/A   Overcast
7:55 AM 26.6 °F 19.1 °F 26.6 °F 100% 30.17 in 10.0 mi NE 6.9 mph - N/A   Overcast
8:15 AM 26.6 °F 18.2 °F 26.6 °F 100% 30.17 in 10.0 mi ENE 8.1 mph - N/A   Overcast
8:35 AM 26.6 °F 19.1 °F 26.6 °F 100% 30.18 in 9.0 mi ENE 6.9 mph - N/A   Overcast
8:55 AM 26.6 °F 19.1 °F 26.6 °F 100% 30.18 in 9.0 mi NE 6.9 mph - N/A   Overcast
9:15 AM 26.6 °F 19.1 °F 26.6 °F 100% 30.19 in 9.0 mi NE 6.9 mph - N/A   Overcast
9:35 AM 26.6 °F 19.1 °F 26.6 °F 100% 30.19 in 8.0 mi NE 6.9 mph - N/A   Overcast
9:55 AM 26.6 °F 18.2 °F 26.6 °F 100% 30.20 in 8.0 mi NE 8.1 mph - N/A   Overcast
10:15 AM 26.6 °F 18.2 °F 26.6 °F 100% 30.20 in 8.0 mi NE 8.1 mph - N/A   Overcast
10:35 AM 26.6 °F 19.1 °F 26.6 °F 100% 30.20 in 8.0 mi NE 6.9 mph - N/A   Overcast
10:55 AM 26.6 °F 20.0 °F 26.6 °F 100% 30.20 in 7.0 mi NE 5.8 mph - N/A   Overcast
11:15 AM 26.6 °F 19.1 °F 26.6 °F 100% 30.20 in 8.0 mi NE 6.9 mph - N/A   Overcast
11:35 AM 28.4 °F 21.2 °F 26.6 °F 93% 30.20 in 10.0 mi NNE 6.9 mph - N/A   Overcast
11:55 AM 28.4 °F 20.4 °F 28.4 °F 100% 30.21 in 10.0 mi NE 8.1 mph - N/A   Overcast
12:15 PM 28.4 °F 20.4 °F 28.4 °F 100% 30.21 in 10.0 mi NNE 8.1 mph - N/A   Overcast
12:35 PM 28.4 °F 21.2 °F 28.4 °F 100% 30.21 in 10.0 mi NNE 6.9 mph - N/A   Overcast
12:55 PM 28.4 °F 21.2 °F 28.4 °F 100% 30.21 in 10.0 mi NE 6.9 mph - N/A   Overcast
1:15 PM 28.4 °F 20.4 °F 28.4 °F 100% 30.21 in 10.0 mi NNE 8.1 mph - N/A   Overcast
1:35 PM 30.2 °F 23.4 °F 28.4 °F 93% 30.21 in 9.0 mi NE 6.9 mph - N/A   Overcast
1:55 PM 30.2 °F 24.3 °F 28.4 °F 93% 30.21 in 10.0 mi NE 5.8 mph - N/A   Overcast
2:15 PM 30.2 °F 23.4 °F 28.4 °F 93% 30.21 in 10.0 mi NE 6.9 mph - N/A   Overcast
2:35 PM 30.2 °F 22.6 °F 28.4 °F 93% 30.21 in 10.0 mi ENE 8.1 mph - N/A   Overcast
2:55 PM 30.2 °F 23.4 °F 28.4 °F 93% 30.22 in 10.0 mi NNE 6.9 mph - N/A   Overcast
3:15 PM 28.4 °F 23.3 °F 28.4 °F 100% 30.22 in 10.0 mi NE 4.6 mph - N/A   Overcast
3:35 PM 28.4 °F 23.3 °F 28.4 °F 100% 30.22 in 10.0 mi NE 4.6 mph - N/A   Overcast
3:55 PM 28.4 °F 22.2 °F 28.4 °F 100% 30.22 in 10.0 mi ENE 5.8 mph - N/A   Overcast
4:15 PM 30.2 °F 23.4 °F 28.4 °F 93% 30.22 in 10.0 mi NNE 6.9 mph - N/A   Overcast
4:35 PM 28.4 °F 23.3 °F 28.4 °F 100% 30.23 in 10.0 mi ENE 4.6 mph - N/A   Overcast
4:55 PM 28.4 °F 23.3 °F 28.4 °F 100% 30.23 in 10.0 mi NE 4.6 mph - N/A   Overcast
5:15 PM 30.2 °F 26.7 °F 28.4 °F 93% 30.23 in 10.0 mi North 3.5 mph - N/A   Overcast
5:35 PM 30.2 °F 25.4 °F 28.4 °F 93% 30.23 in 10.0 mi North 4.6 mph - N/A   Overcast
5:55 PM 28.4 °F 23.3 °F 28.4 °F 100% 30.23 in 10.0 mi NNE 4.6 mph - N/A   Overcast
6:15 PM 28.4 °F 23.3 °F 28.4 °F 100% 30.23 in 10.0 mi NE 4.6 mph - N/A   Overcast
6:35 PM 28.4 °F 23.3 °F 28.4 °F 100% 30.23 in 10.0 mi ENE 4.6 mph - N/A   Overcast
6:55 PM 28.4 °F - 28.4 °F 100% 30.24 in 10.0 mi Calm Calm - N/A   Overcast
7:15 PM 28.4 °F - 28.4 °F 100% 30.24 in 10.0 mi Calm Calm - N/A   Overcast
7:35 PM 28.4 °F 23.3 °F 28.4 °F 100% 30.24 in 10.0 mi NE 4.6 mph - N/A   Overcast
7:55 PM 28.4 °F - 28.4 °F 100% 30.24 in 10.0 mi Calm Calm - N/A   Overcast
8:15 PM 28.4 °F 23.3 °F 28.4 °F 100% 30.24 in 10.0 mi ENE 4.6 mph - N/A   Overcast
8:35 PM 28.4 °F 21.2 °F 28.4 °F 100% 30.24 in 10.0 mi East 6.9 mph - N/A   Overcast
8:55 PM 28.4 °F 24.6 °F 28.4 °F 100% 30.25 in 10.0 mi East 3.5 mph - N/A   Overcast
9:15 PM 28.4 °F - 28.4 °F 100% 30.25 in 10.0 mi Calm Calm - N/A   Overcast
9:35 PM 28.4 °F - 28.4 °F 100% 30.25 in 10.0 mi Calm Calm - N/A   Overcast
9:55 PM 28.4 °F - 28.4 °F 100% 30.25 in 10.0 mi Calm Calm - N/A   Overcast
10:15 PM 28.4 °F - 28.4 °F 100% 30.25 in 10.0 mi Calm Calm - N/A   Overcast
10:35 PM 28.4 °F - 28.4 °F 100% 30.24 in 10.0 mi Calm Calm - N/A   Overcast
10:55 PM 28.4 °F - 28.4 °F 100% 30.24 in 10.0 mi Calm Calm - N/A   Overcast
11:15 PM 28.4 °F - 28.4 °F 100% 30.23 in 10.0 mi Calm Calm - N/A   Overcast
11:35 PM 28.4 °F 24.6 °F 28.4 °F 100% 30.23 in 10.0 mi ESE 3.5 mph - N/A   Overcast
11:55 PM 28.4 °F - 28.4 °F 100% 30.23 in 10.0 mi Calm Calm - N/A   Overcast